GW7291 Weather Reports


Display with metric or nautical units.
time (UTC)temp
F
wind
direction
speed
MPH
gust
MPH
rain 1hr
in
rain 24hr
in
rain mn
in
humidity
%
barometer
mb
20260510011338 76 161 0.0 1.0 0.00 0.00 0.00 45 1008.0
20260510010834 76 126 0.0 1.0 0.00 0.00 0.00 45 1008.0
20260510010332 77 142 1.0 3.0 0.00 0.00 0.00 44 1007.9
20260510005828 77 98 0.0 4.0 0.00 0.00 0.00 45 1008.0
20260510005325 77 160 0.0 3.0 0.00 0.00 0.00 44 1007.8
20260510004822 77 154 1.0 4.0 0.00 0.00 0.00 42 1008.1
20260510004320 78 133 0.0 3.0 0.00 0.00 0.00 43 1008.1
20260510003817 78 146 0.0 3.0 0.00 0.00 0.00 44 1008.0
20260510003314 78 91 0.0 3.0 0.00 0.00 0.00 42 1007.9
20260510002813 79 151 1.0 3.0 0.00 0.00 0.00 42 1007.8
20260510002310 79 162 2.0 4.0 0.00 0.00 0.00 40 1008.3
20260510001807 79 164 4.0 6.0 0.00 0.00 0.00 41 1008.2
20260510001305 80 134 1.0 2.0 0.00 0.00 0.00 40 1008.2
20260510000800 81 126 0.0 3.0 0.00 0.00 0.00 38 1008.2
20260510000258 82 172 3.0 3.0 0.00 0.00 0.00 37 1008.2
20260509235755 82 159 0.0 3.0 0.00 0.00 0.00 36 1008.1
20260509235252 83 168 2.0 6.0 0.00 0.00 0.00 35 1008.1
20260509234747 83 146 1.0 6.0 0.00 0.00 0.00 36 1008.2
20260509234244 83 146 5.0 6.0 0.00 0.00 0.00 35 1008.2
20260509233743 83 135 3.0 6.0 0.00 0.00 0.00 35 1008.3
20260509233240 83 189 2.0 4.0 0.00 0.00 0.00 35 1008.2
20260509232736 84 145 4.0 7.0 0.00 0.00 0.00 34 1008.0
20260509232233 84 198 2.0 3.0 0.00 0.00 0.00 34 1008.2
20260509231729 84 147 4.0 8.0 0.00 0.00 0.00 34 1008.2
20260509231227 84 156 4.0 8.0 0.00 0.00 0.00 34 1008.2
20260509230724 84 109 3.0 8.0 0.00 0.00 0.00 34 1008.3
20260509230221 84 93 3.0 6.0 0.00 0.00 0.00 34 1008.2
20260509225716 84 113 3.0 6.0 0.00 0.00 0.00 33 1008.5
20260509225212 84 154 4.0 6.0 0.00 0.00 0.00 34 1008.4
20260509224708 84 113 4.0 6.0 0.00 0.00 0.00 34 1008.6
20260509224205 85 164 5.0 7.0 0.00 0.00 0.00 32 1008.6
20260509223702 85 191 0.0 7.0 0.00 0.00 0.00 33 1009.0
20260509223159 85 154 2.0 6.0 0.00 0.00 0.00 34 1008.8
20260509222656 85 158 4.0 7.0 0.00 0.00 0.00 32 1008.8
20260509222151 85 144 3.0 6.0 0.00 0.00 0.00 34 1008.8
20260509221648 85 162 2.0 7.0 0.00 0.00 0.00 33 1008.8
20260509221143 85 121 4.0 7.0 0.00 0.00 0.00 33 1009.0
20260509220640 86 168 4.0 7.0 0.00 0.00 0.00 31 1009.0
20260509220136 85 169 0.0 3.0 0.00 0.00 0.00 34 1009.1
20260509215632 85 163 2.0 9.0 0.00 0.00 0.00 33 1008.8
20260509215129 85 51 3.0 7.0 0.00 0.00 0.00 31 1009.0
20260509214626 85 139 1.0 4.0 0.00 0.00 0.00 32 1009.0
20260509214122 86 152 0.0 2.0 0.00 0.00 0.00 34 1009.0
20260509213619 85 155 2.0 6.0 0.00 0.00 0.00 32 1009.0
20260509213115 85 49 1.0 3.0 0.00 0.00 0.00 32 1009.2
20260509212613 85 43 0.0 3.0 0.00 0.00 0.00 33 1009.0
20260509212110 85 129 1.0 9.0 0.00 0.00 0.00 34 1009.3
20260509211606 85 184 1.0 4.0 0.00 0.00 0.00 34 1009.3
20260509211103 85 201 0.0 3.0 0.00 0.00 0.00 33 1009.5
20260509210559 85 80 2.0 3.0 0.00 0.00 0.00 35 1009.4
20260509210056 85 143 1.0 3.0 0.00 0.00 0.00 36 1009.4
20260509205555 85 125 2.0 6.0 0.00 0.00 0.00 38 1009.5
20260509205051 85 164 1.0 4.0 0.00 0.00 0.00 35 1009.6
20260509204548 85 185 1.0 2.0 0.00 0.00 0.00 37 1009.8
20260509204044 85 137 1.0 3.0 0.00 0.00 0.00 33 1009.8
20260509203540 84 57 0.0 4.0 0.00 0.00 0.00 33 1009.7
20260509203039 85 45 2.0 3.0 0.00 0.00 0.00 33 1009.7
20260509202539 84 185 2.0 4.0 0.00 0.00 0.00 35 1009.9
20260509202034 84 32 3.0 4.0 0.00 0.00 0.00 35 1010.0
20260509201530 85 184 3.0 4.0 0.00 0.00 0.00 34 1010.0
20260509201028 84 65 0.0 4.0 0.00 0.00 0.00 38 1010.0
20260509200527 85 160 3.0 6.0 0.00 0.00 0.00 37 1009.9
20260509200024 85 160 1.0 2.0 0.00 0.00 0.00 35 1009.9
20260509195519 84 46 1.0 4.0 0.00 0.00 0.00 36 1010.2
20260509195019 84 165 0.0 3.0 0.00 0.00 0.00 37 1010.2
20260509194515 85 131 0.0 1.0 0.00 0.00 0.00 35 1010.6
20260509194012 84 193 0.0 3.0 0.00 0.00 0.00 36 1010.4
20260509193512 84 178 1.0 3.0 0.00 0.00 0.00 36 1010.5
20260509193009 84 195 2.0 6.0 0.00 0.00 0.00 36 1010.6
20260509192506 82 169 0.0 1.0 0.00 0.00 0.00 37 1010.6
20260509192001 83 49 2.0 3.0 0.00 0.00 0.00 35 1010.6
20260509191456 84 178 3.0 4.0 0.00 0.00 0.00 39 1010.5
20260509190952 84 177 1.0 6.0 0.00 0.00 0.00 37 1010.7
20260509190449 83 158 3.0 7.0 0.00 0.00 0.00 38 1010.8
20260509185947 83 133 1.0 6.0 0.00 0.00 0.00 38 1010.6
20260509185444 83 151 1.0 6.0 0.00 0.00 0.00 38 1010.9
20260509184940 83 195 2.0 2.0 0.00 0.00 0.00 40 1011.0
20260509184439 83 158 1.0 4.0 0.00 0.00 0.00 39 1010.7
20260509183934 83 157 0.0 2.0 0.00 0.00 0.00 42 1011.2
20260509183429 83 163 1.0 3.0 0.00 0.00 0.00 40 1011.2
20260509182926 82 150 0.0 3.0 0.00 0.00 0.00 40 1011.3
20260509182422 82 123 0.0 4.0 0.00 0.00 0.00 43 1011.3
20260509181920 82 131 2.0 6.0 0.00 0.00 0.00 44 1011.2
20260509181417 82 187 0.0 2.0 0.00 0.00 0.00 42 1011.2
20260509180914 83 166 0.0 2.0 0.00 0.00 0.00 48 1011.3
20260509180409 82 202 1.0 4.0 0.00 0.00 0.00 37 1011.3
20260509175907 82 51 0.0 1.0 0.00 0.00 0.00 38 1011.6
20260509175403 82 167 2.0 3.0 0.00 0.00 0.00 39 1011.7
20260509174859 81 185 0.0 6.0 0.00 0.00 0.00 42 1011.8
20260509174355 81 174 0.0 4.0 0.00 0.00 0.00 37 1011.8
20260509173852 81 155 3.0 6.0 0.00 0.00 0.00 40 1011.9
20260509173352 81 151 2.0 3.0 0.00 0.00 0.00 40 1011.9
20260509172848 81 172 2.0 4.0 0.00 0.00 0.00 41 1012.0
20260509172345 80 98 2.0 4.0 0.00 0.00 0.00 45 1012.1
20260509171841 79 144 1.0 6.0 0.00 0.00 0.00 44 1011.9
20260509171337 80 164 2.0 9.0 0.00 0.00 0.00 43 1012.2
20260509170834 79 140 3.0 6.0 0.00 0.00 0.00 47 1012.0
20260509170329 79 150 0.0 6.0 0.00 0.00 0.00 49 1011.8
20260509165824 79 111 2.0 3.0 0.00 0.00 0.00 48 1011.9
20260509165319 79 114 0.0 4.0 0.00 0.00 0.00 52 1012.1
20260509164815 78 155 2.0 6.0 0.00 0.00 0.00 50 1012.1
20260509164311 78 54 1.0 4.0 0.00 0.00 0.00 48 1012.1
20260509163808 78 154 1.0 3.0 0.00 0.00 0.00 57 1012.1
20260509163304 78 111 0.0 2.0 0.00 0.00 0.00 53 1012.4
20260509162803 77 67 1.0 2.0 0.00 0.00 0.00 57 1012.4
20260509162257 76 173 2.0 2.0 0.00 0.00 0.00 54 1012.6
20260509161753 77 109 1.0 2.0 0.00 0.00 0.00 56 1012.5
20260509161249 77 74 1.0 2.0 0.00 0.00 0.00 53 1012.6
20260509160744 75 142 2.0 3.0 0.00 0.00 0.00 57 1012.6
20260509160241 75 157 1.0 2.0 0.00 0.00 0.00 58 1012.7
20260509155736 75 131 2.0 2.0 0.00 0.00 0.00 55 1012.3
20260509155233 75 161 2.0 3.0 0.00 0.00 0.00 55 1012.1
20260509154729 76 64 0.0 3.0 0.00 0.00 0.00 57 1012.3
20260509154226 74 60 0.0 0.0 0.00 0.00 0.00 58 1012.2
20260509153724 74 72 1.0 2.0 0.00 0.00 0.00 59 1012.1
20260509153219 74 93 0.0 3.0 0.00 0.00 0.00 57 1012.0
20260509152716 74 159 0.0 2.0 0.00 0.00 0.00 55 1012.1
20260509152213 75 165 0.0 2.0 0.00 0.00 0.00 56 1012.0
20260509151709 75 156 0.0 1.0 0.00 0.00 0.00 57 1012.2
20260509151207 75 173 1.0 1.0 0.00 0.00 0.00 59 1012.3
20260509150704 74 136 2.0 2.0 0.00 0.00 0.00 63 1012.1
20260509150203 74 184 0.0 2.0 0.00 0.00 0.00 70 1012.3
20260509145658 73 124 0.0 0.0 0.00 0.00 0.00 69 1012.1
20260509145154 73 100 0.0 0.0 0.00 0.00 0.00 71 1012.0
20260509144650 72 144 2.0 3.0 0.00 0.00 0.00 74 1012.0
20260509144148 71 175 0.0 0.0 0.00 0.00 0.00 79 1012.1
20260509143645 71 192 0.0 0.0 0.00 0.00 0.00 78 1012.2
20260509143142 70 141 0.0 0.0 0.00 0.00 0.00 79 1012.2
20260509142637 70 152 0.0 2.0 0.00 0.00 0.00 82 1012.1
20260509142135 70 184 2.0 2.0 0.00 0.00 0.00 83 1012.2
20260509141630 69 188 2.0 2.0 0.00 0.00 0.00 84 1012.3
20260509141127 69 184 0.0 2.0 0.00 0.00 0.00 84 1012.3
20260509140624 68 201 0.0 1.0 0.00 0.00 0.00 86 1011.9
20260509140122 67 222 0.0 1.0 0.00 0.00 0.00 87 1012.0
20260509135619 66 254 2.0 3.0 0.00 0.00 0.00 88 1012.1
20260509135117 67 244 2.0 2.0 0.00 0.00 0.00 86 1011.8
20260509134613 67 222 1.0 1.0 0.00 0.00 0.00 86 1012.0
20260509134111 66 242 0.0 0.0 0.00 0.00 0.00 89 1011.9
20260509133608 65 280 0.0 0.0 0.00 0.00 0.00 95 1011.8
20260509133105 64 254 0.0 1.0 0.00 0.00 0.00 97 1011.8
20260509132603 63 265 0.0 1.0 0.00 0.00 0.00 98 1011.9
20260509132101 63 270 1.0 2.0 0.00 0.00 0.00 99 1011.8
20260509131557 62 4 0.0 0.0 0.00 0.00 0.00 99 1011.6
20260509131054 61 8 1.0 2.0 0.00 0.00 0.00 99 1011.3
20260509130549 60 28 0.0 1.0 0.00 0.00 0.00 99 1011.2
20260509130047 60 26 0.0 1.0 0.00 0.00 0.00 99 1011.6
20260509125543 60 343 1.0 2.0 0.00 0.00 0.00 99 1011.3
20260509125039 60 7 1.0 2.0 0.00 0.00 0.00 99 1011.4
20260509124536 60 7 2.0 3.0 0.00 0.00 0.00 99 1011.4
20260509124033 59 275 1.0 2.0 0.00 0.00 0.00 99 1011.3
20260509123532 60 199 0.0 0.0 0.00 0.00 0.00 99 1011.3
20260509123027 59 199 0.0 0.0 0.00 0.00 0.00 99 1011.0
20260509122524 58 199 0.0 0.0 0.00 0.00 0.00 99 1011.1
20260509122021 57 199 0.0 0.0 0.00 0.00 0.00 99 1011.1
20260509121517 55 199 0.0 0.0 0.00 0.00 0.00 99 1011.0
20260509121015 56 199 0.0 0.0 0.00 0.00 0.00 99 1011.0
20260509120514 56 199 0.0 0.0 0.00 0.00 0.00 99 1010.9
20260509120011 56 199 0.0 0.0 0.00 0.00 0.00 99 1010.6
20260509115508 55 199 0.0 0.0 0.00 0.00 0.00 99 1010.7
20260509115006 54 199 0.0 0.0 0.00 0.00 0.00 99 1010.9
20260509114503 54 199 0.0 0.0 0.00 0.00 0.00 98 1010.8
20260509114003 55 199 0.0 0.0 0.00 0.00 0.00 98 1010.7
20260509113500 55 199 0.0 0.0 0.00 0.00 0.00 98 1010.7
20260509112956 53 199 0.0 0.0 0.00 0.00 0.00 98 1010.6
20260509112454 53 199 0.0 0.0 0.00 0.00 0.00 98 1010.6
20260509111950 53 199 0.0 0.0 0.00 0.00 0.00 98 1010.5
20260509111448 54 199 0.0 0.0 0.00 0.00 0.00 98 1010.6
20260509110945 55 199 0.0 0.0 0.00 0.00 0.00 98 1010.6
20260509110441 55 199 0.0 0.0 0.00 0.00 0.00 98 1010.5
20260509105939 55 200 0.0 0.0 0.00 0.00 0.00 98 1010.6
20260509105438 54 199 0.0 0.0 0.00 0.00 0.00 98 1010.3
20260509104934 54 199 0.0 0.0 0.00 0.00 0.00 98 1010.7
20260509104431 54 199 0.0 0.0 0.00 0.00 0.00 98 1010.6
20260509103928 55 199 0.0 0.0 0.00 0.00 0.00 98 1010.6
20260509103425 53 199 0.0 0.0 0.00 0.00 0.00 98 1010.8
20260509102924 53 199 0.0 0.0 0.00 0.00 0.00 98 1010.5
20260509102421 53 199 0.0 0.0 0.00 0.00 0.00 98 1010.7
20260509101917 53 199 0.0 0.0 0.00 0.00 0.00 98 1010.8
20260509101413 54 199 0.0 0.0 0.00 0.00 0.00 98 1010.7
20260509100911 54 199 0.0 0.0 0.00 0.00 0.00 98 1010.9
20260509100408 55 199 0.0 0.0 0.00 0.00 0.00 98 1010.8
20260509095904 54 198 0.0 0.0 0.00 0.00 0.00 98 1010.8
20260509095402 54 198 0.0 0.0 0.00 0.00 0.00 98 1010.9
20260509094859 54 198 0.0 0.0 0.00 0.00 0.00 98 1011.0
20260509094355 54 198 0.0 0.0 0.00 0.00 0.00 98 1011.0
20260509093853 54 198 0.0 0.0 0.00 0.00 0.00 98 1011.0
20260509093350 54 198 0.0 0.0 0.00 0.00 0.00 98 1010.8
20260509092849 53 198 0.0 0.0 0.00 0.00 0.00 97 1011.0
20260509092346 54 198 0.0 0.0 0.00 0.00 0.00 97 1011.0
20260509091844 55 198 0.0 0.0 0.00 0.00 0.00 97 1011.0
20260509091340 55 199 0.0 0.0 0.00 0.00 0.00 97 1010.9
20260509090838 54 199 0.0 0.0 0.00 0.00 0.00 97 1011.2
20260509090335 54 199 0.0 0.0 0.00 0.00 0.00 97 1010.8
20260509085832 55 199 0.0 0.0 0.00 0.00 0.00 97 1010.8
20260509085329 54 199 0.0 0.0 0.00 0.00 0.00 97 1010.8
20260509084826 54 199 0.0 0.0 0.00 0.00 0.00 97 1011.0
20260509084323 55 199 0.0 0.0 0.00 0.00 0.00 97 1011.0
20260509083821 55 199 0.0 0.0 0.00 0.00 0.00 97 1011.0
20260509083317 55 199 0.0 0.0 0.00 0.00 0.00 97 1011.0
20260509082814 55 200 0.0 1.0 0.00 0.00 0.00 97 1011.0
20260509082310 55 199 0.0 0.0 0.00 0.00 0.00 96 1011.2
20260509081808 56 199 0.0 0.0 0.00 0.00 0.00 96 1010.8
20260509081305 55 199 0.0 0.0 0.00 0.00 0.00 96 1011.1
20260509080803 56 199 0.0 0.0 0.00 0.00 0.00 96 1011.1
20260509080300 56 199 0.0 0.0 0.00 0.00 0.00 96 1011.2
20260509075759 56 199 0.0 0.0 0.00 0.00 0.00 96 1011.6
20260509075255 57 200 0.0 0.0 0.00 0.00 0.00 96 1011.6
20260509074752 57 200 0.0 0.0 0.00 0.00 0.00 96 1011.6
20260509074250 58 197 0.0 0.0 0.00 0.00 0.00 96 1011.4
20260509073746 58 197 0.0 1.0 0.00 0.00 0.00 95 1011.6
20260509073243 57 180 0.0 0.0 0.00 0.00 0.00 95 1011.6
20260509072739 58 179 0.0 0.0 0.00 0.00 0.00 95 1011.3
20260509072235 58 176 0.0 1.0 0.00 0.00 0.00 95 1011.4
20260509071732 59 178 0.0 1.0 0.00 0.00 0.00 95 1011.6
20260509071230 59 181 1.0 2.0 0.00 0.00 0.00 95 1011.4
20260509070727 59 185 0.0 0.0 0.00 0.00 0.00 94 1011.4
20260509070223 59 186 0.0 0.0 0.00 0.00 0.00 93 1011.6
20260509065719 60 186 0.0 0.0 0.00 0.00 0.00 93 1011.3
20260509065216 60 181 0.0 1.0 0.00 0.00 0.00 93 1011.2
20260509064712 60 170 0.0 1.0 0.00 0.00 0.00 92 1011.2
20260509064210 60 155 1.0 2.0 0.00 0.00 0.00 92 1011.2
20260509063707 61 163 2.0 3.0 0.00 0.00 0.00 91 1011.2
20260509063203 61 137 3.0 3.0 0.00 0.00 0.00 91 1011.4
20260509062701 61 154 2.0 3.0 0.00 0.00 0.00 91 1011.9
20260509062158 61 140 3.0 3.0 0.00 0.00 0.00 92 1011.7
20260509061655 61 148 1.0 3.0 0.00 0.00 0.00 92 1011.8
20260509061152 61 147 2.0 3.0 0.00 0.00 0.00 92 1011.6
20260509060650 61 151 2.0 4.0 0.00 0.00 0.00 91 1011.7
20260509060146 61 163 2.0 3.0 0.00 0.00 0.00 91 1011.6
20260509055641 61 146 2.0 4.0 0.00 0.00 0.00 91 1011.6
20260509055137 61 158 2.0 4.0 0.00 0.00 0.00 91 1011.7
20260509054634 61 125 3.0 6.0 0.00 0.00 0.00 92 1011.4
20260509054132 61 110 3.0 3.0 0.00 0.00 0.00 93 1011.4
20260509053630 61 152 1.0 2.0 0.00 0.00 0.00 93 1011.4
20260509053127 61 147 0.0 1.0 0.00 0.00 0.00 93 1011.3
20260509052625 61 147 0.0 3.0 0.00 0.00 0.00 93 1011.4
20260509052122 61 138 1.0 1.0 0.00 0.00 0.00 93 1011.4
20260509051620 61 135 0.0 0.0 0.00 0.00 0.00 93 1011.6
20260509051117 61 129 0.0 0.0 0.00 0.00 0.00 92 1011.3
20260509050614 61 118 0.0 2.0 0.00 0.00 0.00 92 1011.7
20260509050109 61 98 1.0 1.0 0.00 0.00 0.00 92 1011.8
20260509045608 62 76 0.0 1.0 0.00 0.03 0.03 92 1011.7
20260509045104 62 108 0.0 1.0 0.00 0.03 0.03 92 1011.7
20260509044601 62 108 0.0 2.0 0.00 0.03 0.03 92 1011.6
20260509044059 62 121 0.0 2.0 0.00 0.03 0.03 92 1011.7
20260509043555 62 118 0.0 2.0 0.00 0.03 0.03 92 1011.6
20260509043051 62 138 1.0 2.0 0.00 0.03 0.03 92 1011.8
20260509042547 62 90 1.0 3.0 0.00 0.03 0.03 92 1011.7
20260509042044 62 116 1.0 2.0 0.00 0.03 0.03 92 1011.8
20260509041540 62 81 0.0 1.0 0.00 0.03 0.03 91 1011.7
20260509041038 62 76 0.0 1.0 0.00 0.03 0.03 91 1011.7
20260509040536 62 56 1.0 2.0 0.00 0.03 0.03 90 1011.7
20260509040033 63 50 1.0 4.0 0.00 0.03 0.03 90 1011.6
20260509035530 63 93 0.0 4.0 0.00 0.03 0.03 90 1011.6
20260509035026 62 59 2.0 3.0 0.00 0.03 0.03 90 1011.7
20260509034525 62 40 2.0 4.0 0.00 0.03 0.03 90 1011.4
20260509034021 62 44 1.0 2.0 0.00 0.03 0.03 91 1011.2
20260509033518 62 42 0.0 2.0 0.00 0.03 0.03 91 1011.1
20260509033015 61 54 2.0 3.0 0.00 0.03 0.03 92 1011.2
20260509032512 61 45 0.0 0.0 0.00 0.03 0.03 92 1010.8
20260509032009 62 55 0.0 0.0 0.00 0.03 0.03 91 1010.9
20260509031507 62 118 0.0 0.0 0.00 0.03 0.03 91 1010.6
20260509031004 62 205 0.0 0.0 0.00 0.03 0.03 91 1010.4
20260509030502 62 170 0.0 0.0 0.00 0.03 0.03 90 1010.2
20260509025959 63 169 0.0 0.0 0.00 0.03 0.03 89 1010.2
20260509025455 63 170 0.0 0.0 0.00 0.03 0.03 89 1010.0
20260509024950 64 167 0.0 1.0 0.00 0.03 0.03 88 1009.9
20260509024447 64 180 1.0 2.0 0.00 0.03 0.03 88 1009.7
20260509023943 64 179 1.0 2.0 0.00 0.03 0.03 87 1009.7
20260509023441 64 185 2.0 3.0 0.00 0.03 0.03 87 1009.7
20260509022937 64 178 0.0 0.0 0.00 0.03 0.03 88 1009.6
20260509022434 64 130 1.0 2.0 0.00 0.03 0.03 89 1009.6
20260509021932 64 151 0.0 0.0 0.00 0.03 0.03 90 1009.4
20260509021428 64 167 0.0 0.0 0.00 0.03 0.03 90 1009.4
20260509020926 64 129 0.0 0.0 0.00 0.03 0.03 90 1009.4
20260509020424 64 149 0.0 0.0 0.00 0.03 0.03 90 1009.3
20260509015920 64 130 0.0 0.0 0.00 0.03 0.03 90 1009.1
20260509015420 65 105 0.0 0.0 0.00 0.03 0.03 89 1009.2
20260509014916 65 200 0.0 0.0 0.00 0.03 0.03 89 1009.0
20260509014413 66 172 0.0 0.0 0.00 0.03 0.03 88 1009.0
20260509013909 66 186 0.0 0.0 0.00 0.03 0.03 87 1008.8
20260509013406 66 107 0.0 0.0 0.00 0.03 0.03 87 1008.9
20260509012901 67 86 0.0 0.0 0.00 0.03 0.03 86 1008.9
20260509012358 67 177 0.0 0.0 0.00 0.03 0.03 85 1008.5
20260509011856 67 153 0.0 0.0 0.00 0.03 0.03 85 1008.8